Regional Weather Roundup
Issued by NWS Little Rock, AR

Home | Current Version | Previous Version | Graphics & Text | Print | Product List | Glossary On
Versions: 1 2 3 4 5 6 7 8 9 10 11 12 13 14 15 16 17 18 19 20 21 22 23 24 25 26 27 28 29 30 31 32 33 34 35 36 37 38 39 40 41 42 43 44 45 46 47 48 49 50
000
ASUS44 KLZK 240005
RWRLZK

WEATHER ROUNDUP FOR ARKANSAS
NATIONAL WEATHER SERVICE LITTLE ROCK AR
600 PM CST MON JAN 23 2017

NOTE: "FAIR" INDICATES FEW OR NO CLOUDS BELOW 12,000 FEET WITH NO
SIGNIFICANT WEATHER AND/OR OBSTRUCTIONS TO VISIBILITY.

ARZ001-003-010-029-240100-
NORTHWEST ARKANSAS

CITY           SKY/WX    TMP DP  RH WIND       PRES   REMARKS
FAYETTEVILLE   CLEAR     42  36  79 CALM      29.82F
6HR MIN TEMP:  41; 6HR MAX TEMP:  54;

FORT SMITH     CLEAR     53  32  44 CALM      29.82F
6HR MIN TEMP:  48; 6HR MAX TEMP:  58;

HARRISON       CLEAR     46  33  60 CALM      29.84R
6HR MIN TEMP:  45; 6HR MAX TEMP:  52;

BENTONVILLE    CLEAR    N/A N/A N/A SE3       29.82F
ROGERS         CLEAR     48  33  56 SE3       29.83S
6HR MIN TEMP:  45; 6HR MAX TEMP:  54;

SILOAM SPGS    CLEAR     48  28  46 SE5       29.81F
6HR MIN TEMP:  45; 6HR MAX TEMP:  54;

HIGHFILL       CLEAR     49  32  52 SE5       29.81F
6HR MIN TEMP:  46; 6HR MAX TEMP:  54;

SPRINGDALE     CLEAR     50  30  46 CALM      29.83F
$$

ARZ004-005-016-240100-
NORTH CENTRAL ARKANSAS

CITY           SKY/WX    TMP DP  RH WIND       PRES   REMARKS
BATESVILLE     CLEAR     48  34  57 NW3       29.86R
6HR MIN TEMP:  48; 6HR MAX TEMP:  55;

FLIPPIN        CLEAR     45  32  61 CALM      29.83R
6HR MIN TEMP:  45; 6HR MAX TEMP:  52;

MTN HOME       CLEAR     44  34  67 NW3       29.83R
6HR MIN TEMP:  44; 6HR MAX TEMP:  51;

$$

ARZ040-041-240100-
WEST CENTRAL ARKANSAS

CITY           SKY/WX    TMP DP  RH WIND       PRES   REMARKS
MENA           CLEAR     52  37  58 CALM      29.83S
MOUNT IDA      CLEAR     50  36  58 CALM      29.82S
6HR MIN TEMP:  50; 6HR MAX TEMP:  62;

$$

ARZ009-017-025-026-028-240100-
NORTHEAST ARKANSAS

CITY           SKY/WX    TMP DP  RH WIND       PRES   REMARKS
CORNING        FAIR      46  37  71 NW7       29.86R
JONESBORO      CLEAR     49  37  63 NW3       29.84R
6HR MIN TEMP:  49; 6HR MAX TEMP:  54;

NEWPORT        CLEAR     47  39  74 MISG        N/A
6HR MIN TEMP:  47; 6HR MAX TEMP:  56;

WALNUT RIDGE   CLEAR     45  34  65 N7        29.84R
6HR MIN TEMP:  45; 6HR MAX TEMP:  55;

BLYTHEVILLE    CLOUDY    48  40  73 NE6       29.84R
6HR MIN TEMP:  48; 6HR MAX TEMP:  52;

$$

ARZ022-023-033-042-044-240100-
CENTRAL ARKANSAS

CITY           SKY/WX    TMP DP  RH WIND       PRES   REMARKS
LITTLE ROCK    CLEAR     52  36  54 W3        29.85S
6HR MIN TEMP:  51; 6HR MAX TEMP:  57;

N LITTLE ROCK    N/A     50  38  64 CALM      29.87R
6HR MIN TEMP:  50; 6HR MAX TEMP:  55;

JACKSONVILLE   CLEAR     50  41  71 SW6       29.85R
6HR MIN TEMP:  50; 6HR MAX TEMP:  58;

SEARCY         CLEAR     50  38  63 W3        29.87R
6HR MIN TEMP:  49; 6HR MAX TEMP:  56;

HOT SPRINGS    CLEAR     53  36  52 CALM      29.85R
6HR MIN TEMP:  53; 6HR MAX TEMP:  60;

RUSSELLVILLE   CLEAR     47  38  71 CALM      29.85R
6HR MIN TEMP:  47; 6HR MAX TEMP:  57;

CLINTON        FAIR      45  39  81 CALM      29.85R
$$

ARZ036-240100-
EAST ARKANSAS

CITY           SKY/WX    TMP DP  RH WIND       PRES   REMARKS
WEST MEMPHIS   CLOUDY    49  41  74 SW3       29.84R
6HR MIN TEMP:  47; 6HR MAX TEMP:  50;

$$

ARZ050-053-066-070-073-240100-
SOUTHWEST ARKANSAS

CITY           SKY/WX    TMP DP  RH WIND       PRES   REMARKS
ARKADELPHIA    FAIR      53  47  79 CALM      29.86R
6HR MIN TEMP:  52; 6HR MAX TEMP:  61;

CAMDEN         CLEAR     50  37  62 CALM      29.87R
TEXARKANA      CLEAR     52  40  63 S5        29.86R
6HR MIN TEMP:  52; 6HR MAX TEMP:  61;

EL DORADO        N/A    N/A N/A N/A MISG      29.88R
DE QUEEN       CLEAR     57  38  48 S5        29.82S
6HR MIN TEMP:  57; 6HR MAX TEMP:  64;

$$

ARZ056-057-069-240100-
SOUTHEAST ARKANSAS

CITY           SKY/WX    TMP DP  RH WIND       PRES   REMARKS
PINE BLUFF     CLEAR     52  38  58 CALM      29.85S
6HR MIN TEMP:  49; 6HR MAX TEMP:  57;

STUTTGART      CLEAR     52  37  58 W3        29.85S
6HR MIN TEMP:  50; 6HR MAX TEMP:  55;

MONTICELLO     CLEAR     51  41  68 CALM      29.86R
6HR MIN TEMP:  50; 6HR MAX TEMP:  57;


$$





USA.gov is the U.S. government's official web portal to all federal, state and local government web resources and services.